When you browse on this site, cookies collect data to enhance your experience and personalize the content and advertising you see.
Visit our Privacy Policy to learn more. By continuing to use the site, you agree to this use of cookies and data.
  • In Deutschland
  • Länderverzeichnis
  • Für 7 Tage
  • Wassertemperatur
  • Wetterkarte
  • Widgets
  • user-avatar
    Anmelden

    Stündliche Wetter Maidstone

    Heute, 10 Dezember, Dienstag

    Zeit Temperatur Niederschläge Wind Luftdruck Luftfeuchtigkeit
    00:00 +2°C° 0 mm 2 m/S 766 mmHg 82%
    01:00 +2°C° 0 mm 2 m/S 766 mmHg 83%
    02:00 +1°C° 0 mm 3 m/S 766 mmHg 83%
    03:00 +1°C° 0 mm 3 m/S 766 mmHg 84%
    04:00 +2°C° 0 mm 3 m/S 765 mmHg 84%
    05:00 +3°C° 0 mm 4 m/S 765 mmHg 84%
    06:00 +3°C° 0 mm 4 m/S 764 mmHg 84%
    07:00 +3°C° 0 mm 6 m/S 764 mmHg 84%
    08:00 +4°C° 0 mm 7 m/S 763 mmHg 84%
    09:00 +5°C° 0 mm 8 m/S 762 mmHg 84%
    10:00 +5°C° 0 mm 9 m/S 761 mmHg 83%
    11:00 +6°C° 0 mm 9 m/S 760 mmHg 82%
    12:00 +6°C° 0 mm 10 m/S 759 mmHg 82%
    13:00 +6°C° 0.4 mm 11 m/S 758 mmHg 84%
    14:00 +7°C° 0.4 mm 11 m/S 756 mmHg 87%
    15:00 +7°C° 0.4 mm 12 m/S 755 mmHg 89%
    16:00 +7°C° 0.2 mm 12 m/S 754 mmHg 88%
    17:00 +8°C° 0.2 mm 12 m/S 753 mmHg 88%
    18:00 +9°C° 0.2 mm 12 m/S 752 mmHg 87%
    19:00 +9°C° 0.8 mm 12 m/S 751 mmHg 88%
    20:00 +9°C° 0.8 mm 12 m/S 751 mmHg 88%
    21:00 +9°C° 0.8 mm 12 m/S 751 mmHg 88%
    22:00 +8°C° 0.8 mm 9 m/S 752 mmHg 87%
    23:00 +6°C° 0.8 mm 7 m/S 752 mmHg 85%

    Morgen, 11 Dezember, Mittwoch

    Zeit Temperatur Niederschläge Wind Luftdruck Luftfeuchtigkeit
    00:00 +6°C° 0.8 mm 5 m/S 753 mmHg 84%
    01:00 +6°C° 0 mm 4 m/S 753 mmHg 85%
    02:00 +5°C° 0 mm 4 m/S 753 mmHg 85%
    03:00 +4°C° 0 mm 4 m/S 753 mmHg 86%
    04:00 +4°C° 0 mm 3 m/S 753 mmHg 87%
    05:00 +3°C° 0 mm 3 m/S 753 mmHg 87%
    06:00 +3°C° 0 mm 3 m/S 753 mmHg 87%
    07:00 +3°C° 0 mm 3 m/S 753 mmHg 86%
    08:00 +3°C° 0 mm 3 m/S 753 mmHg 85%
    09:00 +3°C° 0 mm 3 m/S 752 mmHg 84%
    10:00 +4°C° 0 mm 3 m/S 752 mmHg 81%
    11:00 +6°C° 0 mm 4 m/S 751 mmHg 77%
    12:00 +7°C° 0 mm 4 m/S 751 mmHg 74%
    13:00 +7°C° 0.1 mm 5 m/S 750 mmHg 76%
    14:00 +6°C° 0.1 mm 5 m/S 750 mmHg 77%
    15:00 +6°C° 0.1 mm 5 m/S 749 mmHg 79%
    16:00 +5°C° 0.4 mm 5 m/S 749 mmHg 80%
    17:00 +3°C° 0.4 mm 6 m/S 749 mmHg 81%
    18:00 +2°C° 0.4 mm 6 m/S 749 mmHg 82%
    19:00 +2°C° 0 mm 5 m/S 749 mmHg 83%
    20:00 +2°C° 0 mm 5 m/S 750 mmHg 84%
    21:00 +1°C° 0 mm 4 m/S 750 mmHg 85%
    22:00 +1°C° 0 mm 4 m/S 751 mmHg 85%
    23:00 +1°C° 0 mm 4 m/S 751 mmHg 86%

    übermorgen, 12 Dezember, Donnerstag

    Zeit Temperatur Niederschläge Wind Luftdruck Luftfeuchtigkeit
    00:00 0°C° 0 mm 4 m/S 751 mmHg 86%
    01:00 0°C° 0 mm 4 m/S 751 mmHg 86%
    02:00 0°C° 0 mm 4 m/S 751 mmHg 86%
    03:00 0°C° 0 mm 3 m/S 751 mmHg 87%
    04:00 +1°C° 0 mm 3 m/S 751 mmHg 87%
    05:00 +1°C° 0 mm 3 m/S 751 mmHg 87%
    06:00 +1°C° 0 mm 3 m/S 751 mmHg 87%
    07:00 0°C° 0 mm 4 m/S 750 mmHg 83%
    08:00 +1°C° 0 mm 4 m/S 749 mmHg 80%
    09:00 +2°C° 0 mm 5 m/S 748 mmHg 77%
    10:00 +3°C° 0.1 mm 7 m/S 746 mmHg 80%
    11:00 +3°C° 0.1 mm 9 m/S 745 mmHg 83%
    12:00 +4°C° 0.1 mm 11 m/S 743 mmHg 86%
    13:00 +5°C° 2.1 mm 12 m/S 740 mmHg 87%
    14:00 +5°C° 2.1 mm 13 m/S 738 mmHg 89%
    15:00 +6°C° 2.1 mm 14 m/S 735 mmHg 90%
    16:00 +7°C° 2.8 mm 13 m/S 733 mmHg 88%
    17:00 +8°C° 2.8 mm 12 m/S 731 mmHg 86%
    18:00 +8°C° 2.8 mm 11 m/S 729 mmHg 83%
    19:00 +7°C° 0.1 mm 10 m/S 729 mmHg 81%
    20:00 +5°C° 0.1 mm 9 m/S 729 mmHg 78%
    21:00 +3°C° 0.1 mm 9 m/S 729 mmHg 76%
    22:00 +2°C° 0.1 mm 9 m/S 728 mmHg 78%
    23:00 +2°C° 0.1 mm 8 m/S 728 mmHg 80%

    13 Dezember, Freitag

    Zeit Temperatur Niederschläge Wind Luftdruck Luftfeuchtigkeit
    00:00 +1°C° 0.1 mm 8 m/S 728 mmHg 82%
    01:00 +1°C° 0 mm 8 m/S 727 mmHg 80%
    02:00 +1°C° 0 mm 8 m/S 727 mmHg 78%
    03:00 +1°C° 0 mm 8 m/S 726 mmHg 76%
    04:00 +1°C° 0.6 mm 9 m/S 726 mmHg 81%
    05:00 +2°C° 0.6 mm 10 m/S 725 mmHg 85%
    06:00 +2°C° 0.6 mm 11 m/S 724 mmHg 90%
    07:00 +2°C° 0.7 mm 11 m/S 725 mmHg 88%
    08:00 +3°C° 0.7 mm 11 m/S 725 mmHg 85%
    09:00 +3°C° 0.7 mm 11 m/S 726 mmHg 83%
    10:00 +4°C° 0 mm 11 m/S 727 mmHg 82%
    11:00 +4°C° 0 mm 11 m/S 728 mmHg 80%
    12:00 +4°C° 0 mm 11 m/S 729 mmHg 79%
    13:00 +4°C° 0 mm 11 m/S 730 mmHg 75%
    14:00 +4°C° 0 mm 11 m/S 731 mmHg 71%
    15:00 +4°C° 0 mm 11 m/S 732 mmHg 67%
    16:00 +3°C° 0 mm 10 m/S 732 mmHg 69%
    17:00 +3°C° 0 mm 10 m/S 733 mmHg 71%
    18:00 +2°C° 0 mm 9 m/S 733 mmHg 73%
    19:00 +2°C° 0 mm 9 m/S 734 mmHg 73%
    20:00 +2°C° 0 mm 9 m/S 734 mmHg 74%
    21:00 +2°C° 0 mm 9 m/S 734 mmHg 74%
    22:00 +2°C° 0 mm 8 m/S 735 mmHg 75%
    23:00 +2°C° 0 mm 8 m/S 735 mmHg 76%

    14 Dezember, Samstag

    Zeit Temperatur Niederschläge Wind Luftdruck Luftfeuchtigkeit
    00:00 +2°C° 0 mm 7 m/S 736 mmHg 77%
    01:00 +2°C° 0 mm 7 m/S 736 mmHg 78%
    02:00 +2°C° 0 mm 7 m/S 736 mmHg 80%
    03:00 +2°C° 0 mm 7 m/S 736 mmHg 81%
    04:00 +2°C° 0 mm 7 m/S 737 mmHg 81%
    05:00 +2°C° 0 mm 7 m/S 737 mmHg 80%
    06:00 +2°C° 0 mm 7 m/S 737 mmHg 80%
    07:00 +2°C° 0 mm 7 m/S 737 mmHg 79%
    08:00 +2°C° 0 mm 7 m/S 738 mmHg 79%
    09:00 +2°C° 0 mm 7 m/S 738 mmHg 79%
    10:00 +3°C° 0.2 mm 7 m/S 739 mmHg 80%
    11:00 +2°C° 0.2 mm 8 m/S 739 mmHg 82%
    12:00 +4°C° 0.2 mm 8 m/S 739 mmHg 83%
    13:00 +4°C° 0.1 mm 8 m/S 740 mmHg 78%
    14:00 +4°C° 0.1 mm 8 m/S 741 mmHg 73%
    15:00 +4°C° 0.1 mm 8 m/S 741 mmHg 67%
    16:00 +3°C° 0 mm 7 m/S 742 mmHg 69%
    17:00 +2°C° 0 mm 6 m/S 743 mmHg 71%
    18:00 +1°C° 0 mm 5 m/S 743 mmHg 72%
    19:00 +3°C° 0 mm 4 m/S 743 mmHg 73%
    20:00 +3°C° 0 mm 4 m/S 742 mmHg 73%
    21:00 +3°C° 0 mm 4 m/S 742 mmHg 73%
    22:00 +5°C° 2.1 mm 5 m/S 741 mmHg 77%
    23:00 +5°C° 2.1 mm 7 m/S 740 mmHg 80%

    15 Dezember, Sonntag

    Zeit Temperatur Niederschläge Wind Luftdruck Luftfeuchtigkeit
    00:00 +6°C° 2.1 mm 8 m/S 740 mmHg 84%
    01:00 +4°C° 0 mm 6 m/S 740 mmHg 84%
    02:00 +3°C° 0 mm 4 m/S 741 mmHg 85%
    03:00 +1°C° 0 mm 2 m/S 742 mmHg 85%
    04:00 0°C° 0 mm 4 m/S 742 mmHg 86%
    05:00 0°C° 0 mm 5 m/S 743 mmHg 87%
    06:00 +1°C° 0 mm 6 m/S 744 mmHg 88%
    07:00 +1°C° 0 mm 6 m/S 744 mmHg 83%
    08:00 +2°C° 0 mm 6 m/S 745 mmHg 78%
    09:00 +2°C° 0 mm 6 m/S 745 mmHg 74%
    10:00 +3°C° 0 mm 6 m/S 745 mmHg 73%
    11:00 +4°C° 0 mm 6 m/S 746 mmHg 71%
    12:00 +7°C° 0 mm 6 m/S 746 mmHg 70%
    13:00 +5°C° 0.1 mm 6 m/S 746 mmHg 72%
    14:00 +5°C° 0.1 mm 6 m/S 746 mmHg 74%
    15:00 +5°C° 0.1 mm 6 m/S 746 mmHg 77%
    16:00 +5°C° 0 mm 6 m/S 746 mmHg 78%
    17:00 +4°C° 0 mm 6 m/S 746 mmHg 78%
    18:00 +4°C° 0 mm 6 m/S 746 mmHg 79%
    19:00 +4°C° 0.1 mm 6 m/S 746 mmHg 79%
    20:00 +4°C° 0.1 mm 6 m/S 746 mmHg 80%
    21:00 +5°C° 0.1 mm 6 m/S 746 mmHg 80%
    22:00 +5°C° 0.2 mm 6 m/S 746 mmHg 81%
    23:00 +5°C° 0.2 mm 6 m/S 746 mmHg 81%
    Mehr zeigen